User: anonymous   Login
Location: Alberta Star Party
(51.6612°N, 112.9089°W)
Time: 17:17:46
(UTC-07:00)
Language:

AO-Echo - Orbit

View from above orbital plane
View from above orbital plane
View from above satellite
View from above satellite

Ground track
Ground track

The orbit data is extracted from the following two-line orbital elements,

1 28375U 04025K   16337.20846915  .00000030  00000-0  21922-4 0  9994
2 28375  98.3430 268.9267 0082989 156.8205 203.6762 14.41813013653430
Epoch (UTC): 02 December 2016 05:00:11
Eccentricity: 0.0082989
inclination: 98.3430°
perigee height: 693 km
apogee height: 811 km
right ascension of ascending node: 268.9267°
argument of perigee: 156.8205°
revolutions per day: 14.41813013
mean anomaly at epoch: 203.6762°
orbit number at epoch: 65343

The dashed part of the orbit path shows where the satellite is in the earth's shadow,  

DLR